When you browse on this site, cookies collect data to enhance your experience and personalize the content and advertising you see.
Visit our Privacy Policy to learn more. By continuing to use the site, you agree to this use of cookies and data.
  • en Suisse
  • Liste des pays
  • À 7 jours
  • Température de l'eau
  • Carte météo
  • Widgets météo
  • user-avatar
    Se connecter

    Météo par heure à Kamarang

    Ce jour, 19 Septembre, Jeudi

    Heure Température Précipitation Vent Pression Humidité
    00:00 +21°C° 0.8 mm 0 m/s 710 mmHg 98%
    01:00 +21°C° 0.8 mm 0 m/s 710 mmHg 98%
    02:00 +20°C° 0.8 mm 0 m/s 710 mmHg 98%
    03:00 +20°C° 0.1 mm 0 m/s 710 mmHg 98%
    04:00 +20°C° 0.1 mm 0 m/s 710 mmHg 99%
    05:00 +20°C° 0.1 mm 0 m/s 710 mmHg 99%
    06:00 +21°C° 0 mm 0 m/s 711 mmHg 96%
    07:00 +22°C° 0 mm 0 m/s 711 mmHg 93%
    08:00 +24°C° 0 mm 0 m/s 712 mmHg 90%
    09:00 +26°C° 0.6 mm 0 m/s 712 mmHg 80%
    10:00 +28°C° 0.6 mm 0 m/s 712 mmHg 71%
    11:00 +30°C° 0.6 mm 0 m/s 712 mmHg 61%
    12:00 +32°C° 1 mm 1 m/s 711 mmHg 62%
    13:00 +32°C° 1 mm 1 m/s 710 mmHg 64%
    14:00 +32°C° 1 mm 1 m/s 709 mmHg 65%
    15:00 +31°C° 1.2 mm 1 m/s 709 mmHg 70%
    16:00 +30°C° 1.2 mm 1 m/s 709 mmHg 75%
    17:00 +29°C° 1.2 mm 1 m/s 709 mmHg 80%
    18:00 +25°C° 2.3 mm 0 m/s 709 mmHg 86%
    19:00 +24°C° 2.3 mm 0 m/s 710 mmHg 91%
    20:00 +22°C° 2.3 mm 0 m/s 710 mmHg 96%
    21:00 +22°C° 0.4 mm 0 m/s 710 mmHg 97%
    22:00 +21°C° 0.4 mm 0 m/s 711 mmHg 97%
    23:00 +21°C° 0.4 mm 0 m/s 711 mmHg 98%

    Demain, 20 Septembre, Vendredi

    Heure Température Précipitation Vent Pression Humidité
    00:00 +21°C° 0.3 mm 0 m/s 711 mmHg 98%
    01:00 +21°C° 0.3 mm 0 m/s 711 mmHg 99%
    02:00 +21°C° 0.3 mm 0 m/s 710 mmHg 99%
    03:00 +21°C° 0.3 mm 0 m/s 710 mmHg 99%
    04:00 +21°C° 0.3 mm 0 m/s 711 mmHg 99%
    05:00 +20°C° 0.3 mm 0 m/s 711 mmHg 99%
    06:00 +21°C° 0.1 mm 0 m/s 711 mmHg 97%
    07:00 +22°C° 0.1 mm 0 m/s 712 mmHg 95%
    08:00 +23°C° 0.1 mm 0 m/s 713 mmHg 93%
    09:00 +25°C° 0.1 mm 0 m/s 713 mmHg 82%
    10:00 +28°C° 0.1 mm 0 m/s 713 mmHg 72%
    11:00 +30°C° 0.1 mm 0 m/s 713 mmHg 61%
    12:00 +32°C° 0.3 mm 1 m/s 712 mmHg 59%
    13:00 +33°C° 0.3 mm 1 m/s 712 mmHg 57%
    14:00 +33°C° 0.3 mm 1 m/s 711 mmHg 55%
    15:00 +32°C° 0.2 mm 1 m/s 711 mmHg 59%
    16:00 +31°C° 0.2 mm 1 m/s 711 mmHg 63%
    17:00 +30°C° 0.2 mm 1 m/s 710 mmHg 68%
    18:00 +28°C° 0.6 mm 1 m/s 711 mmHg 76%
    19:00 +24°C° 0.6 mm 0 m/s 711 mmHg 85%
    20:00 +22°C° 0.6 mm 0 m/s 711 mmHg 94%
    21:00 +22°C° 0.4 mm 0 m/s 712 mmHg 96%
    22:00 +21°C° 0.4 mm 0 m/s 712 mmHg 97%
    23:00 +21°C° 0.4 mm 0 m/s 712 mmHg 98%

    Après-demain, 21 Septembre, Samedi

    Heure Température Précipitation Vent Pression Humidité
    00:00 +21°C° 0.1 mm 0 m/s 712 mmHg 99%
    01:00 +21°C° 0.1 mm 0 m/s 712 mmHg 99%
    02:00 +21°C° 0.1 mm 0 m/s 711 mmHg 99%
    03:00 +21°C° 0 mm 0 m/s 711 mmHg 99%
    04:00 +21°C° 0 mm 0 m/s 711 mmHg 99%
    05:00 +20°C° 0 mm 0 m/s 711 mmHg 99%
    06:00 +21°C° 0 mm 0 m/s 712 mmHg 96%
    07:00 +22°C° 0 mm 0 m/s 712 mmHg 93%
    08:00 +23°C° 0 mm 0 m/s 713 mmHg 90%
    09:00 +26°C° 0 mm 0 m/s 713 mmHg 77%
    10:00 +30°C° 0 mm 1 m/s 713 mmHg 63%
    11:00 +33°C° 0 mm 1 m/s 713 mmHg 50%
    12:00 +33°C° 0 mm 1 m/s 713 mmHg 48%
    13:00 +34°C° 0 mm 1 m/s 712 mmHg 46%
    14:00 +34°C° 0 mm 1 m/s 711 mmHg 45%
    15:00 +32°C° 0.9 mm 1 m/s 711 mmHg 56%
    16:00 +30°C° 0.9 mm 1 m/s 710 mmHg 67%
    17:00 +28°C° 0.9 mm 1 m/s 710 mmHg 78%
    18:00 +27°C° 1.3 mm 1 m/s 710 mmHg 85%
    19:00 +25°C° 1.3 mm 1 m/s 710 mmHg 91%
    20:00 +22°C° 1.3 mm 0 m/s 711 mmHg 98%
    21:00 +22°C° 0.3 mm 0 m/s 711 mmHg 98%
    22:00 +22°C° 0.3 mm 0 m/s 711 mmHg 98%
    23:00 +22°C° 0.3 mm 0 m/s 712 mmHg 98%

    22 Septembre, Dimanche

    Heure Température Précipitation Vent Pression Humidité
    00:00 +22°C° 0.1 mm 0 m/s 711 mmHg 98%
    01:00 +22°C° 0.1 mm 0 m/s 711 mmHg 98%
    02:00 +21°C° 0.1 mm 0 m/s 710 mmHg 98%
    03:00 +21°C° 0.1 mm 0 m/s 711 mmHg 98%
    04:00 +21°C° 0.1 mm 0 m/s 711 mmHg 98%
    05:00 +21°C° 0.1 mm 0 m/s 711 mmHg 98%
    06:00 +22°C° 0 mm 0 m/s 711 mmHg 95%
    07:00 +23°C° 0 mm 0 m/s 712 mmHg 92%
    08:00 +24°C° 0 mm 0 m/s 713 mmHg 89%
    09:00 +27°C° 0.3 mm 1 m/s 713 mmHg 82%
    10:00 +29°C° 0.3 mm 1 m/s 713 mmHg 75%
    11:00 +30°C° 0.3 mm 1 m/s 713 mmHg 69%
    12:00 +30°C° 1.5 mm 1 m/s 712 mmHg 74%
    13:00 +29°C° 1.5 mm 1 m/s 711 mmHg 80%
    14:00 +29°C° 1.5 mm 1 m/s 711 mmHg 86%
    15:00 +27°C° 1.9 mm 1 m/s 711 mmHg 90%
    16:00 +24°C° 1.9 mm 0 m/s 711 mmHg 94%
    17:00 +23°C° 1.9 mm 0 m/s 710 mmHg 97%
    18:00 +22°C° 0.2 mm 0 m/s 711 mmHg 98%
    19:00 +22°C° 0.2 mm 0 m/s 711 mmHg 98%
    20:00 +21°C° 0.2 mm 0 m/s 711 mmHg 98%
    21:00 +21°C° 0 mm 0 m/s 712 mmHg 98%
    22:00 +21°C° 0 mm 0 m/s 712 mmHg 99%
    23:00 +21°C° 0 mm 0 m/s 712 mmHg 99%

    23 Septembre, Lundi

    Heure Température Précipitation Vent Pression Humidité
    00:00 +21°C° 0 mm 0 m/s 712 mmHg 99%
    01:00 +21°C° 0 mm 0 m/s 711 mmHg 99%
    02:00 +21°C° 0 mm 0 m/s 711 mmHg 99%
    03:00 +21°C° 0.1 mm 0 m/s 711 mmHg 99%
    04:00 +20°C° 0.1 mm 0 m/s 711 mmHg 99%
    05:00 +20°C° 0.1 mm 0 m/s 711 mmHg 99%
    06:00 +21°C° 0.6 mm 0 m/s 712 mmHg 98%
    07:00 +22°C° 0.6 mm 0 m/s 712 mmHg 96%
    08:00 +23°C° 0.6 mm 0 m/s 713 mmHg 95%
    09:00 +25°C° 0.6 mm 0 m/s 713 mmHg 85%
    10:00 +29°C° 0.6 mm 1 m/s 713 mmHg 75%
    11:00 +31°C° 0.6 mm 1 m/s 713 mmHg 66%
    12:00 +30°C° 2.5 mm 1 m/s 713 mmHg 75%
    13:00 +28°C° 2.5 mm 1 m/s 712 mmHg 85%
    14:00 +26°C° 2.5 mm 1 m/s 711 mmHg 94%
    15:00 +26°C° 2.9 mm 1 m/s 711 mmHg 96%
    16:00 +23°C° 2.9 mm 0 m/s 711 mmHg 97%
    17:00 +22°C° 2.9 mm 0 m/s 711 mmHg 98%
    18:00 +22°C° 0.8 mm 0 m/s 711 mmHg 98%
    19:00 +21°C° 0.8 mm 0 m/s 712 mmHg 99%
    20:00 +21°C° 0.8 mm 0 m/s 712 mmHg 99%
    21:00 +21°C° 0.2 mm 0 m/s 712 mmHg 99%
    22:00 +21°C° 0.2 mm 0 m/s 713 mmHg 99%
    23:00 +20°C° 0.2 mm 0 m/s 713 mmHg 99%

    24 Septembre, Mardi

    Heure Température Précipitation Vent Pression Humidité
    00:00 +20°C° 0.1 mm 0 m/s 712 mmHg 99%
    01:00 +20°C° 0.1 mm 0 m/s 712 mmHg 99%
    02:00 +20°C° 0.1 mm 0 m/s 711 mmHg 99%
    03:00 +20°C° 0 mm 0 m/s 711 mmHg 99%
    04:00 +19°C° 0 mm 0 m/s 712 mmHg 99%
    05:00 +19°C° 0 mm 0 m/s 712 mmHg 99%
    06:00 +20°C° 0 mm 0 m/s 712 mmHg 97%
    07:00 +21°C° 0 mm 0 m/s 713 mmHg 95%
    08:00 +22°C° 0 mm 0 m/s 713 mmHg 94%
    09:00 +25°C° 0 mm 0 m/s 713 mmHg 80%
    10:00 +29°C° 0 mm 1 m/s 713 mmHg 67%
    11:00 +32°C° 0 mm 1 m/s 713 mmHg 54%
    12:00 +33°C° 0 mm 1 m/s 713 mmHg 49%
    13:00 +34°C° 0 mm 1 m/s 712 mmHg 44%
    14:00 +35°C° 0 mm 1 m/s 711 mmHg 39%
    15:00 +33°C° 0.1 mm 1 m/s 711 mmHg 47%
    16:00 +32°C° 0.1 mm 1 m/s 711 mmHg 55%
    17:00 +31°C° 0.1 mm 1 m/s 711 mmHg 63%
    18:00 +28°C° 1 mm 1 m/s 711 mmHg 74%
    19:00 +26°C° 1 mm 1 m/s 712 mmHg 86%
    20:00 +21°C° 1 mm 0 m/s 712 mmHg 98%
    21:00 +21°C° 0.2 mm 0 m/s 712 mmHg 98%
    22:00 +21°C° 0.2 mm 0 m/s 712 mmHg 98%
    23:00 +21°C° 0.2 mm 0 m/s 713 mmHg 98%
    Voir plus